When you browse on this site, cookies collect data to enhance your experience and personalize the content and advertising you see.
Visit our Privacy Policy to learn more. By continuing to use the site, you agree to this use of cookies and data.
  • In France
  • List of Countries
  • For 7 days
  • Water Temperature
  • Satellite Maps
  • Weather Map
  • Weather Widgets
  • user-avatar
    Login

    Hourly Weather Barra

    Today, 13 December, Thursday

    Time Temperature Precipitation Wind Pressure Humidity
    00:00 +27°C° 0.1 mm 1 mps 745 mmHg 95%
    01:00 +27°C° 0.1 mm 1 mps 744 mmHg 95%
    02:00 +27°C° 0.2 mm 1 mps 744 mmHg 95%
    03:00 +27°C° 0.2 mm 1 mps 744 mmHg 96%
    04:00 +26°C° 0.2 mm 1 mps 744 mmHg 96%
    05:00 +27°C° 0.5 mm 1 mps 744 mmHg 94%
    06:00 +27°C° 0.5 mm 1 mps 745 mmHg 92%
    07:00 +28°C° 0.5 mm 2 mps 745 mmHg 90%
    08:00 +29°C° 0.3 mm 1 mps 745 mmHg 82%
    09:00 +31°C° 0.3 mm 1 mps 745 mmHg 73%
    10:00 +33°C° 0.3 mm 1 mps 745 mmHg 65%
    11:00 +33°C° 0.7 mm 1 mps 745 mmHg 66%
    12:00 +33°C° 0.7 mm 1 mps 745 mmHg 68%
    13:00 +33°C° 0.7 mm 1 mps 744 mmHg 70%
    14:00 +32°C° 0.7 mm 2 mps 744 mmHg 72%
    15:00 +32°C° 0.7 mm 2 mps 744 mmHg 75%
    16:00 +31°C° 0.7 mm 3 mps 743 mmHg 78%
    17:00 +30°C° 0 mm 3 mps 743 mmHg 82%
    18:00 +29°C° 0 mm 3 mps 743 mmHg 86%
    19:00 +28°C° 0 mm 3 mps 742 mmHg 89%
    20:00 +28°C° 0 mm 3 mps 743 mmHg 89%
    21:00 +28°C° 0 mm 3 mps 743 mmHg 90%
    22:00 +27°C° 0 mm 2 mps 744 mmHg 90%
    23:00 +27°C° 0 mm 2 mps 743 mmHg 89%

    Tomorrow, 14 December, Friday

    Time Temperature Precipitation Wind Pressure Humidity
    00:00 +27°C° 0 mm 3 mps 743 mmHg 88%
    01:00 +27°C° 0 mm 3 mps 742 mmHg 88%
    02:00 +27°C° 0.2 mm 3 mps 742 mmHg 88%
    03:00 +27°C° 0.2 mm 3 mps 742 mmHg 88%
    04:00 +26°C° 0.2 mm 3 mps 742 mmHg 88%
    05:00 +27°C° 0.6 mm 2 mps 742 mmHg 86%
    06:00 +27°C° 0.6 mm 2 mps 743 mmHg 85%
    07:00 +28°C° 0.6 mm 2 mps 743 mmHg 84%
    08:00 +29°C° 0.3 mm 2 mps 743 mmHg 77%
    09:00 +31°C° 0.3 mm 3 mps 743 mmHg 70%
    10:00 +34°C° 0.3 mm 3 mps 743 mmHg 63%
    11:00 +34°C° 1 mm 3 mps 743 mmHg 61%
    12:00 +35°C° 1 mm 3 mps 742 mmHg 60%
    13:00 +35°C° 1 mm 3 mps 742 mmHg 59%
    14:00 +34°C° 1.2 mm 3 mps 741 mmHg 65%
    15:00 +33°C° 1.2 mm 3 mps 741 mmHg 71%
    16:00 +31°C° 1.2 mm 3 mps 740 mmHg 76%
    17:00 +30°C° 1.6 mm 3 mps 741 mmHg 82%
    18:00 +29°C° 1.6 mm 3 mps 741 mmHg 87%
    19:00 +27°C° 1.6 mm 2 mps 742 mmHg 93%
    20:00 +27°C° 1.6 mm 2 mps 742 mmHg 93%
    21:00 +27°C° 1.6 mm 2 mps 742 mmHg 94%
    22:00 +27°C° 1.6 mm 2 mps 743 mmHg 94%
    23:00 +27°C° 1.8 mm 2 mps 742 mmHg 95%

    Day after tomorrow, 15 December, Saturday

    Time Temperature Precipitation Wind Pressure Humidity
    00:00 +27°C° 1.8 mm 2 mps 742 mmHg 95%
    01:00 +26°C° 1.8 mm 3 mps 742 mmHg 96%
    02:00 +26°C° 1.4 mm 3 mps 741 mmHg 96%
    03:00 +26°C° 1.4 mm 3 mps 741 mmHg 96%
    04:00 +26°C° 1.4 mm 3 mps 741 mmHg 96%
    05:00 +26°C° 1.2 mm 4 mps 741 mmHg 96%
    06:00 +27°C° 1.2 mm 4 mps 741 mmHg 96%
    07:00 +27°C° 1.2 mm 4 mps 740 mmHg 95%
    08:00 +27°C° 1.9 mm 6 mps 740 mmHg 95%
    09:00 +27°C° 1.9 mm 7 mps 739 mmHg 94%
    10:00 +27°C° 1.9 mm 8 mps 739 mmHg 94%
    11:00 +28°C° 2.9 mm 9 mps 738 mmHg 93%
    12:00 +28°C° 2.9 mm 10 mps 737 mmHg 92%
    13:00 +28°C° 2.9 mm 12 mps 737 mmHg 91%
    14:00 +28°C° 4.5 mm 12 mps 736 mmHg 88%
    15:00 +28°C° 4.5 mm 13 mps 736 mmHg 85%
    16:00 +28°C° 4.5 mm 13 mps 735 mmHg 83%
    17:00 +28°C° 0.6 mm 12 mps 736 mmHg 82%
    18:00 +28°C° 0.6 mm 11 mps 736 mmHg 82%
    19:00 +28°C° 0.6 mm 9 mps 737 mmHg 82%
    20:00 +28°C° 0.2 mm 8 mps 738 mmHg 82%
    21:00 +28°C° 0.2 mm 6 mps 738 mmHg 82%
    22:00 +28°C° 0.2 mm 5 mps 739 mmHg 83%
    23:00 +28°C° 0 mm 5 mps 739 mmHg 82%

    16 December, Sunday

    Time Temperature Precipitation Wind Pressure Humidity
    00:00 +27°C° 0 mm 4 mps 739 mmHg 82%
    01:00 +27°C° 0 mm 4 mps 740 mmHg 82%
    02:00 +27°C° 0 mm 4 mps 740 mmHg 82%
    03:00 +27°C° 0 mm 4 mps 740 mmHg 81%
    04:00 +27°C° 0 mm 4 mps 740 mmHg 81%
    05:00 +27°C° 0 mm 3 mps 741 mmHg 77%
    06:00 +27°C° 0 mm 3 mps 742 mmHg 73%
    07:00 +27°C° 0 mm 3 mps 743 mmHg 69%
    08:00 +29°C° 0 mm 3 mps 743 mmHg 61%
    09:00 +31°C° 0 mm 2 mps 743 mmHg 53%
    10:00 +35°C° 0 mm 2 mps 743 mmHg 44%
    11:00 +36°C° 0 mm 2 mps 743 mmHg 40%
    12:00 +37°C° 0 mm 2 mps 742 mmHg 36%
    13:00 +38°C° 0 mm 2 mps 742 mmHg 32%
    14:00 +38°C° 0 mm 3 mps 741 mmHg 31%
    15:00 +38°C° 0 mm 3 mps 741 mmHg 31%
    16:00 +38°C° 0 mm 3 mps 740 mmHg 31%
    17:00 +36°C° 0 mm 3 mps 741 mmHg 40%
    18:00 +33°C° 0 mm 3 mps 741 mmHg 50%
    19:00 +30°C° 0 mm 3 mps 741 mmHg 59%
    20:00 +29°C° 0 mm 3 mps 742 mmHg 59%
    21:00 +28°C° 0 mm 3 mps 742 mmHg 59%
    22:00 +27°C° 0 mm 3 mps 743 mmHg 59%
    23:00 +26°C° 0 mm 3 mps 743 mmHg 56%

    17 December, Monday

    Time Temperature Precipitation Wind Pressure Humidity
    00:00 +26°C° 0 mm 2 mps 742 mmHg 53%
    01:00 +25°C° 0 mm 2 mps 742 mmHg 50%
    02:00 +25°C° 0 mm 2 mps 742 mmHg 50%
    03:00 +24°C° 0 mm 2 mps 742 mmHg 50%
    04:00 +24°C° 0 mm 2 mps 742 mmHg 51%
    05:00 +24°C° 0 mm 2 mps 742 mmHg 51%
    06:00 +25°C° 0 mm 2 mps 743 mmHg 52%
    07:00 +25°C° 0 mm 2 mps 744 mmHg 52%
    08:00 +29°C° 0 mm 2 mps 744 mmHg 44%
    09:00 +34°C° 0 mm 2 mps 744 mmHg 36%
    10:00 +36°C° 0 mm 1 mps 744 mmHg 28%
    11:00 +39°C° 0 mm 1 mps 743 mmHg 25%
    12:00 +40°C° 0 mm 1 mps 743 mmHg 22%
    13:00 +42°C° 0 mm 1 mps 742 mmHg 19%
    14:00 +41°C° 0 mm 2 mps 742 mmHg 21%
    15:00 +40°C° 0 mm 2 mps 742 mmHg 22%
    16:00 +39°C° 0 mm 2 mps 741 mmHg 24%
    17:00 +36°C° 0 mm 2 mps 742 mmHg 32%
    18:00 +32°C° 0 mm 2 mps 742 mmHg 41%
    19:00 +29°C° 0 mm 2 mps 743 mmHg 49%
    20:00 +29°C° 0 mm 2 mps 743 mmHg 50%
    21:00 +28°C° 0 mm 3 mps 743 mmHg 50%
    22:00 +27°C° 0 mm 3 mps 744 mmHg 51%
    23:00 +27°C° 0 mm 3 mps 744 mmHg 50%

    18 December, Tuesday

    Time Temperature Precipitation Wind Pressure Humidity
    00:00 +26°C° 0 mm 3 mps 744 mmHg 49%
    01:00 +26°C° 0 mm 3 mps 743 mmHg 48%
    02:00 +26°C° 0 mm 2 mps 743 mmHg 48%
    03:00 +26°C° 0 mm 2 mps 743 mmHg 49%
    04:00 +26°C° 0 mm 2 mps 743 mmHg 49%
    05:00 +26°C° 0 mm 2 mps 744 mmHg 50%
    06:00 +27°C° 0 mm 2 mps 744 mmHg 51%
    07:00 +27°C° 0 mm 2 mps 744 mmHg 53%
    08:00 +31°C° 0 mm 2 mps 745 mmHg 45%
    09:00 +35°C° 0 mm 2 mps 745 mmHg 37%
    10:00 +38°C° 0 mm 2 mps 745 mmHg 29%
    11:00 +40°C° 0 mm 2 mps 744 mmHg 27%
    12:00 +41°C° 0 mm 2 mps 744 mmHg 24%
    13:00 +44°C° 0 mm 3 mps 744 mmHg 22%
    14:00 +43°C° 0 mm 3 mps 743 mmHg 25%
    15:00 +42°C° 0 mm 3 mps 743 mmHg 28%
    16:00 +39°C° 0 mm 3 mps 742 mmHg 31%
    17:00 +37°C° 0 mm 3 mps 743 mmHg 40%
    18:00 +35°C° 0 mm 3 mps 743 mmHg 49%
    19:00 +31°C° 0 mm 3 mps 744 mmHg 58%
    20:00 +30°C° 0 mm 3 mps 744 mmHg 60%
    21:00 +30°C° 0 mm 3 mps 744 mmHg 61%
    22:00 +29°C° 0 mm 3 mps 745 mmHg 62%
    23:00 +28°C° 0 mm 3 mps 745 mmHg 60%
    Show more